STARLINK-5704, 55486

Orbit data source: Space-Track

STARLINK-5704, 55486 is a payload satellite owned by SpaceX/Seattle (US) in LEO that was launched on Thu, 02 Feb 2023 UTC via an FALCON 9 launch vehicle from the Air Force Eastern Test Range (AFETR). Payload-class satellites include a variety of spacecraft equipped with specific instruments for various scientific and technological missions. These include communications satellites like Starlink; space stations such as the ISS; scientific satellites like the Hubble; Earth observation satellites from companies like Planet Labs, Umbra, and HawkEye 360; GPS; miniature CubeSats for education and research; and military/defense satellites.

Loading next visibility...
Identifier
55486, 2023-015AP
Orbit
LEO
Country
Flag of USUS
Related business
Manufacturer
SpaceX/Seattle
Mission
Operational Commercial Communications
Bus & Motor
STARLINK, Unknown motor
Mass
305 kg wet, ~290 kg dry
Launch date (UTC)
2023-02-02 (3 years ago)
Launch vehicle
FALCON 9
Launch site
Air Force Eastern Test Range (AFETR)
Object type
Payload
Rocket body
Debris
Shape & HBR
Box + 1 Pan, 10.1 m
Radar Cross Section
13.562 m², Large (>1 m²)

Expand to show TLE details & history
Last TLE update: 18 hours ago

TLE from 18 hours ago
0 STARLINK-5704
1 55486U 23015AP  25352.57995370 -.00011212  00000-0 -81521-3 0  9990
2 55486  43.0044  59.6049 0001502 260.6144  99.4528 15.02582101158409
Epoch: 2025-12-18T13:55Z
TLE epoch observation values (Epoch: 2025-12-18T13:55:07.999Z)
Latitude
-0.00007°
Longitude
123.38807°
Altitude
558.887 km
Speed
7.584 km/s
True Right ascension
03h 58m 25s
True Declination
0° 00' 00"
Sunlit
Object was in full shadow at epoch
Visualization orbit readout
Latitude
Unknown
Longitude
Unknown
Altitude
Unknown
Speed
Unknown
Apparent Right ascension
Unknown
Apparent Declination
Unknown
Sunlit
N/A
Visualization observer readout
Local Sidereal Time
06:20:34
Azimuth
Unknown
Elevation
Unknown
Doppler factor
Unknown
Orbital elements
Apogee altitude
561.903 km
Perigee altitude
559.819 km
Semi-major axis
6,938.998 km
Eccentricity
0.00015
Inclination
43.0044°
RAAN
59.6049°
Arg. of periapsis
260.6144°
True anomaly
99.46978°
Mean anomaly
99.4528°
Eccentric anomaly
99.46129°
Mean motion
3.7549 °/min
Orbital period
95.87 mins
BSTAR
-0.00081521
Loading maneuver chart data...
Computing Atmospheric mass density...
Loading historical data...
Loading historical data...
Loading historical data...
Loading historical data...
Loading historical data...
Loading historical data...
Loading historical data...

Documentation

Showing up to 5 results
|